Location: Gettysburg
(39.8310°N, 77.2310°W)
Time: 19:56:14
(UTC-04:00)

ATLAS 2AS CENTAUR R/B - Visible Passes

Search period start: 30 September 2014 00:00
Search period end: 10 October 2014 00:00
Orbit: 919 x 1293 km, 63.7° (Epoch: 07 September)

Date Brightness Start Highest point End Pass type
(mag) Time Alt. Az. Time Alt. Az. Time Alt. Az.
30 Sep 3.8 03:58:00 36° SE 03:59:15 39° ESE 04:06:11 10° NE visible
30 Sep 3.2 05:45:29 22° WSW 05:50:06 48° NW 05:57:36 10° NNE visible
01 Oct 4.5 03:15:17 24° ESE 03:15:17 24° ESE 03:20:41 10° ENE visible
01 Oct 2.8 05:02:46 45° WSW 05:05:09 70° NW 05:12:55 10° NNE visible
02 Oct 5.2 02:32:30 13° E 02:32:30 13° E 02:34:12 10° ENE visible
02 Oct 2.7 04:19:58 77° SSE 04:20:24 80° ESE 04:28:08 10° NE visible
02 Oct 4.0 06:07:27 15° W 06:12:18 28° NW 06:18:51 10° NNE visible
03 Oct 3.6 03:37:07 47° E 03:37:07 47° E 03:43:11 10° NE visible
03 Oct 3.5 05:24:35 31° W 05:27:04 38° NW 05:34:16 10° NNE visible
04 Oct 4.6 02:54:12 25° ENE 02:54:12 25° ENE 02:57:57 10° NE visible
04 Oct 3.0 04:41:40 55° WNW 04:42:00 55° NW 04:49:39 10° NNE visible
04 Oct 4.5 06:30:02 10° WNW 06:34:56 18° NNW 06:40:02 10° NNE visible
05 Oct 5.3 02:11:14 13° ENE 02:11:14 13° ENE 02:12:11 10° ENE visible
05 Oct 3.2 03:58:41 60° NNE 03:58:41 60° NNE 04:04:56 10° NNE visible
05 Oct 4.2 05:46:09 18° WNW 05:49:26 23° NNW 05:55:29 10° NNE visible
06 Oct 4.1 03:15:40 37° NE 03:15:40 37° NE 03:20:05 10° NE visible
06 Oct 3.7 05:03:08 31° NW 05:04:05 32° NW 05:10:56 10° NNE visible
07 Oct 4.9 02:32:36 21° NE 02:32:36 21° NE 02:35:03 10° NE visible
07 Oct 3.6 04:20:04 42° NNW 04:20:04 42° NNW 04:26:20 10° NNE visible
07 Oct 4.7 06:07:54 10° WNW 06:12:14 16° NNW 06:16:42 10° NNE visible
08 Oct 5.4 01:49:31 10° NE 01:49:31 10° NE 01:49:39 10° NE visible
08 Oct 3.9 03:36:58 38° NNE 03:36:58 38° NNE 03:41:41 10° NNE visible
08 Oct 4.4 05:24:25 18° NW 05:26:37 20° NNW 05:32:08 10° NNE visible
09 Oct 4.6 02:53:50 27° NE 02:53:50 27° NE 02:56:56 10° NE visible
09 Oct 4.1 04:41:17 26° NW 04:41:17 26° NW 04:47:35 10° NNE visible
09 Oct 4.9 06:32:35 10° NNW 06:35:23 12° N 06:38:15 10° NNE visible
